Flag for U.S.A. Weather past 2 weeks in Sheboygan, Wisconsin, U.S.A.

Now
35 °F

Clear.


Feels Like: 29 °F
Forecast: 35 / 42 °F
Wind: 8 mph from South

Location: Sheboygan County Memorial Airport

Current Time: Dec 25, 2014 at 9:56:47 PM

Latest Report: Dec 25, 2014 at 8:53 PM


Visibility: 10 mi

Pressure: 29.94 "Hg

Humidity: 85%

Dew point: 31 °F

Location of SheboyganLocation

Historic Weather in Sheboygan — Graph

°F

Sheboygan temperature yesterday

Maximum temperature yesterday: 38 °F (at 9:53 AM)
Minimum temperature yesterday: 34 °F (at 12:53 AM)
Average temperature yesterday: 35 °F

Past Weeks' High & Low Weather Summary

 TemperatureHumidityPressure
High48 °F (Dec 14, 10:53 AM)100% (Dec 15, 2:53 AM)30.35 "Hg (Dec 15, 2:53 AM)
Low19 °F (Dec 11, 12:53 AM)62% (Dec 17, 10:53 AM)29.48 "Hg (Dec 24, 2:53 PM)
Average33 °F85%30.03 "Hg
* Reported Dec 10 7:53 PM — Dec 25 7:53 PM, Sheboygan, Weather by CustomWeather, © 2014

Note: Actual official high and low records may vary slightly from our data, if they occured in-between our weather recording intervals... More about our weather records

Advertising

Sheboygan weather history for previous 24 hours

 ConditionsComfort  
Time TempWeatherWind HumidityBarometerVisibility
7:53 PM
Dec 25
35 °FClear.7 mph82%29.93 "Hg10 mi
6:53 PM33 °FClear.7 mph85%29.95 "Hg10 mi
5:53 PM34 °FPassing clouds.6 mph82%29.93 "Hg10 mi
4:53 PM36 °FPassing clouds.9 mph75%29.93 "Hg10 mi
3:53 PM38 °FOvercast.9 mph73%29.91 "Hg10 mi
2:53 PM38 °FOvercast.9 mph73%29.90 "Hg10 mi
1:53 PM37 °FOvercast.10 mph76%29.89 "Hg10 mi
12:53 PM36 °FOvercast.10 mph75%29.87 "Hg10 mi
11:53 AM36 °FPartly sunny.15 mph75%29.87 "Hg10 mi
10:53 AM35 °FOvercast.18 mph75%29.86 "Hg10 mi
9:53 AM34 °FOvercast.15 mph79%29.86 "Hg10 mi
8:53 AM34 °FOvercast.15 mph79%29.82 "Hg10 mi
7:53 AM34 °FOvercast.12 mph79%29.80 "Hg10 mi
6:53 AM34 °FOvercast.10 mph79%29.77 "Hg10 mi
5:53 AM34 °FOvercast.10 mph79%29.74 "Hg10 mi
4:53 AM34 °FOvercast.13 mph79%29.72 "Hg10 mi
3:53 AM34 °FOvercast.13 mph82%29.69 "Hg10 mi
2:53 AM34 °FOvercast.12 mph85%29.66 "Hg10 mi
2:04 AM34 °FOvercast.12 mph85%29.62 "Hg10 mi
1:53 AM34 °FMostly cloudy.14 mph85%29.63 "Hg10 mi
1:00 AM34 °FOvercast.13 mph85%29.57 "Hg10 mi
12:03 AM34 °FMostly cloudy.13 mph85%29.54 "Hg10 mi
11:53 PM
Dec 24
34 °FMostly cloudy.13 mph85%29.56 "Hg10 mi
10:53 PM34 °FOvercast.9 mph88%29.54 "Hg10 mi
9:53 PM34 °FOvercast.10 mph88%29.52 "Hg10 mi
Weather by CustomWeather, © 2014

See weather overviewHow to use our weather pages